Flag for U.S.A. Weather past 2 weeks in San Jose, California, U.S.A.

Now
44 °F

Clear.


Feels Like: 43 °F
Forecast: 43 / 65 °F
Wind: 3 mph from Southeast

Location: San Jose International Airport

Current Time: Mar 4, 2015 at 5:47:25 AM

Latest Report: Mar 4, 2015 at 4:53 AM


Visibility: 10 mi

Pressure: 30.06 "Hg

Humidity: 85%

Dew point: 40 °F

Location of San JoseLocation

Historic Weather in San Jose — Graph

°F

San Jose temperature yesterday

Maximum temperature yesterday: 64 °F (at 1:53 PM)
Minimum temperature yesterday: 41 °F (at 2:53 AM)
Average temperature yesterday: 52 °F

Past Weeks' High & Low Weather Summary

 TemperatureHumidityPressure
High70 °F (Feb 20, 2:53 PM)94% (Feb 19, 4:03 AM)30.36 "Hg (Feb 19, 4:03 AM)
Low38 °F (Feb 24, 6:53 AM)17% (Feb 24, 1:53 PM)29.74 "Hg (Feb 28, 3:53 AM)
Average55 °F66%30.01 "Hg
* Reported Feb 17 3:53 AM — Mar 4 3:53 AM, San Jose, Weather by CustomWeather, © 2015

Note: Actual official high and low records may vary slightly from our data, if they occured in-between our weather recording intervals... More about our weather records

Advertising

San Jose weather history for previous 24 hours

 ConditionsComfort  
Time TempWeatherWind HumidityBarometerVisibility
3:53 AM
Wed, Mar 4
43 °FClear.3 mph86%30.04 "Hg10 mi
2:53 AM44 °FClear.3 mph89%30.04 "Hg10 mi
1:53 AM46 °FClear.3 mph89%30.05 "Hg10 mi
12:53 AM48 °FClear.No wind86%30.04 "Hg10 mi
11:53 PM
Tue, Mar 3
50 °FClear.No wind83%30.03 "Hg10 mi
10:53 PM52 °FClear.No wind83%30.03 "Hg10 mi
9:53 PM52 °FClear.6 mph83%30.03 "Hg10 mi
8:53 PM53 °FPassing clouds.6 mph80%30.01 "Hg10 mi
7:53 PM55 °FPassing clouds.8 mph74%30.00 "Hg10 mi
6:53 PM56 °FPassing clouds.7 mph65%29.97 "Hg10 mi
5:53 PM58 °FBroken clouds.12 mph65%29.96 "Hg10 mi
4:53 PM60 °FBroken clouds.10 mph56%29.96 "Hg10 mi
3:53 PM63 °FScattered clouds.9 mph48%29.96 "Hg10 mi
2:53 PM63 °FScattered clouds.9 mph50%29.98 "Hg10 mi
1:53 PM64 °FScattered clouds.10 mph43%29.99 "Hg10 mi
12:53 PM63 °FPassing clouds.6 mph47%30.01 "Hg10 mi
11:53 AM60 °FPassing clouds.6 mph56%30.03 "Hg10 mi
10:53 AM58 °FPassing clouds.5 mph62%30.04 "Hg10 mi
9:53 AM55 °FPassing clouds.No wind67%30.06 "Hg10 mi
8:53 AM50 °FPassing clouds.No wind71%30.06 "Hg10 mi
7:53 AM46 °FPassing clouds.3 mph77%30.04 "Hg10 mi
6:53 AM41 °FPassing clouds.5 mph86%30.02 "Hg10 mi
5:53 AM41 °FClear.No wind86%30.01 "Hg10 mi
Weather by CustomWeather, © 2015

See weather overviewHow to use our weather pages